Jackpot

Texas Poker Multi Jackpot System

Kini Telah hadir Jackpot SUPER ROYAL FLUSH

Kini Telah hadir Jackpot 2000 (khusus table VIP keatas).

Ikutilah global jackpot yang tersedia di system kami, dengan system jackpot terbaru dan pertama di indonesia, anda dapat membeli jackpot dengan harga 100 rupiah saja dan menangkan hadiahnya hingga puluhan juta rupiah.

Jackpot bukanlah suatu keharusan untuk dibeli, namun kami memberikan suatu fitur tambahan untuk member tercinta dari www.qqdomino.info.

Terdapat tiga pilihan harga jackpot yang bisa anda beli yaitu :100,500,1000 dan 2000(khusus table VIP Keatas) rupiah.

Hadiah dari Multi jackpot system www.qqdomino.info

  1. full house x 10 harga jackpot yang anda beli.
      (contoh:anda membeli 1000 maka:1000 X10 = 10.000)
  2. four of kind x 250 harga jackpot yang anda beli
      (contoh:anda membeli 1000 maka:1000 X250 = 250.000)
  3. Straight flush x 1200
      (contoh:anda membeli 1000 maka:1000 X1200 = 1.200.000)
  4. Royal flush x 10000 harga jackpot yang anda beli
      (contoh:anda membeli 1000 maka:1000 X10000 = 10.000.000)
  5. SUPER ROYAL FLUSH x 30000 harga jackpot yang anda beli
      (contoh:anda membeli 1000 maka:1000 X30000 = 30.000.000)

Kondisi kartu

  1. full house adalah kondisi kartu dimana kartu anda dan kartu tengah dengan total 7 kartu bisa mendapatkan nilai 5 kartu dengan kombinasi 1 tris(three of kind) dan 1 pair, contoh 3 kartu 10 dan 2 kartu 5
  2. Four of kind adalah kondisi kartu dimana kartu anda dan kartu tengah dengan total 7 kartu bisa mendapatkan nilai 5 kartu dengan kombinasi 4 kartu yang sama jumlah dan 1 kartu apapun juga contoh anda mendapatkan 4 buah kartu angka 3 dan 1 kartu apapun.
  3. Staright flush adalah kondisi kartu dimana kartu anda dan kartu tengah dengan total 7 kartu bisa mendapatkan nilai 5 kartu dengan kombinasi seri / staright dengan kembang yang sama contoh : urutan kartu dari angka 5, 6, 7, 8 , 9 10 dengan kembang yg sama misalnya as hati
  4. Royal flush adalah kondisi kartu dimana kartu anda dan kartu tengah dengan total 7 kartu bisa mendapatkan nilai 5 kartu dengan kombinasi seri / staright dengan kembang yang sama tetapi kartu tersebut haruslah dimulai dari 10. contoh 10, Queen, Jack, King dan aces dengan kembang yang sama
  5. Super Royal flush adalah kondisi kartu dimana Kedua kartu anda digabung dengan 3 kartu pertama meja haruslah royal flush. contoh kartu anda 10,Queen kembang sama dan 3 kartu pertama meja adalah Jack, King dan aces dengan kembang yang sama

Demikian adalah penjelasan dari Multi Jackpot www.qqdomino.info terima kasih dan selamat bermain salam hoki dari kami

Texas Poker Jackpot Winner

TOP SUPER ROYAL FLUSH
No.TanggalNamaPriceWin
128/05 13:28ERIKSON08Super Royal flush6,000,000
228/05 12:18P11LUSuper Royal flush15,000,000
328/05 11:36SAKITGIGI7Super Royal flush1,500,000
428/05 10:55ADNANN88Super Royal flush3,000,000
528/05 07:52SUGAR04Super Royal flush6,000,000
TOP ROYAL FLUSH
No.TanggalNamaPriceWin
128/05 13:52ALIUNK82Royal flush1,000,000
228/05 13:44LOSESERoyal flush1,000,000
328/05 13:13EZRAHARARoyal flush10,000,000
428/05 13:12VIRGI369Royal flush2,000,000
528/05 12:04311285Royal flush2,000,000
TOP STRAIGHT FLUSH
No.TanggalNamaPriceWin
128/05 14:26ROYALKOPStraight Flush240,000
228/05 14:26RASTA271Straight Flush1,200,000
328/05 14:26LUKELUKStraight Flush1,200,000
428/05 14:26MRBIG882Straight Flush120,000
528/05 14:25DEPO88_Straight Flush600,000
LATEST JACKPOT
No.TanggalNamaPriceWin
128/05 14:26VYPOKERFull House500
228/05 14:26DJROSAFull House5,000
328/05 14:26BIKO66Full House2,000
428/05 14:26BK108Full House1,000
528/05 14:26ALLYSHAFour Of A Kind25,000
628/05 14:2630Z8Full House20,000
728/05 14:26ROYALKOPStraight Flush240,000
828/05 14:26LAZARUS99Full House10,000
928/05 14:26NAGAHOKY99Full House10,000
1028/05 14:26BEAGLE168Full House5,000
1128/05 14:26BOSONGOT21Full House5,000
1228/05 14:26T4DIDO13579Four Of A Kind50,000
1328/05 14:26GABOL09Four Of A Kind500,000
1428/05 14:26JJ365Full House2,000
1528/05 14:26RIFAI78989Full House2,000
1628/05 14:26BULDOZER12Full House10,000
1728/05 14:26HADIMINFull House2,000
1828/05 14:26KESAHHSIHFull House1,000
1928/05 14:26RASTA271Straight Flush1,200,000
2028/05 14:26LUKELUKStraight Flush1,200,000
2128/05 14:26A53B77EBFull House10,000
2228/05 14:26S4KTY5PJFour Of A Kind50,000
2328/05 14:26BLAZER_123Full House2,000
2428/05 14:26AGSHANCOKFull House1,000
2528/05 14:26W4KDRFull House2,000
2628/05 14:2630Z8Full House20,000
2728/05 14:26G36Full House20,000
2828/05 14:26GJJ0123456789Four Of A Kind500,000
2928/05 14:26JITEX88Full House2,000
3028/05 14:26SODUAGAINFull House2,000
3128/05 14:26MRBIG882Straight Flush120,000
3228/05 14:26US9RM97IW0Full House5,000
3328/05 14:26AZRIIL212Full House5,000
3428/05 14:26SXVOPYAIFHFull House2,000
3528/05 14:26F4UZ115Full House1,000
3628/05 14:26SECONDCARDFull House2,000
3728/05 14:26TEMPIK01Full House2,000
3828/05 14:26DEWARKAFull House10,000
3928/05 14:26NKMA88Full House5,000
4028/05 14:26GOSSSAJFour Of A Kind125,000
4128/05 14:26ASJKSJIIFull House5,000
4228/05 14:25ARISDACHFour Of A Kind125,000
4328/05 14:25GIOGGIOGFull House10,000
4428/05 14:25MARIOS88Full House1,000
4528/05 14:25ALATVITALFull House10,000
4628/05 14:25VITONXFull House10,000
4728/05 14:25KEMPO86Four Of A Kind12,500
4828/05 14:25WUL4N33Full House1,000
4928/05 14:25GOTGOT99Four Of A Kind25,000
5028/05 14:25PUT002Full House10,000

Domino Multi Jackpot System

Ikutilah global jackpot yang tersedia di system kami, dengan system jackpot terbaru dan pertama di indonesia, anda dapat membeli jackpot dengan harga 100 rupiah saja dan menangkan hadiahnya hingga puluhan juta rupiah.

Jackpot bukanlah suatu keharusan untuk dibeli, namun kami memberikan suatu fitur tambahan untuk member tercinta dari www.qqdomino.info.

Terdapat tiga pilihan harga jackpot yang bisa anda beli yaitu :100,500 dan 1000 rupiah.

Hadiah dari Multi jackpot system www.qqdomino.info

  1. Murni Kecil x 50 harga jackpot yang anda beli.
      (contoh:anda membeli 1000 maka:1000 X 50 = 50.000)
  2. Murni Besar x 50 harga jackpot yang anda beli
      (contoh:anda membeli 1000 maka:1000 X 50 = 50.000)
  3. BALAK x 100 harga jackpot yang anda beli
      (contoh:anda membeli 1000 maka:1000 X 100 = 100.000)
  4. ENAM DEWA x 6666 harga jackpot yang anda beli
      (contoh:anda membeli 1000 maka:1000 X 6666 = 6.666.000)

Demikian adalah penjelasan dari Multi Jackpot www.qqdomino.info terima kasih dan selamat bermain salam hoki dari kami

Domino Jackpot Winner

TOP ENAM DEWA
No.TanggalNamaPriceWin
128/05 13:42SAKOY82murni enam6,666,000
228/05 13:21UDIN259murni enam666,600
328/05 09:33OAACTG9VQ3murni enam6,666,000
428/05 06:37SILENCE90murni enam6,666,000
528/05 02:00FLIV6XYK0Lmurni enam6,666,000
TOP BALAK
No.TanggalNamaPriceWin
128/05 14:17KALSEMbalak50,000
228/05 14:15BUJANG51balak10,000
328/05 14:07IAIHbalak100,000
428/05 13:59M3RCUSU4balak10,000
528/05 13:57HK4DMARBUN98balak50,000
LATEST JACKPOT
No.TanggalNamaPriceWin
128/05 14:26BUNDAMIRNAmurni kecil25,000
228/05 14:25GOLD3NSTARmurni besar25,000
328/05 14:24ELVARO88murni besar25,000
428/05 14:23SANDRY1812murni kecil50,000
528/05 14:22BBEEKIYU66murni besar25,000
628/05 14:22F9BC7105murni besar50,000
728/05 14:20M45BOZmurni kecil50,000
828/05 14:18K1Y4Imurni besar25,000
928/05 14:17KUPASHABISmurni besar5,000
1028/05 14:17KALSEMbalak50,000
1128/05 14:16KORDINmurni besar5,000
1228/05 14:16ENCUT41murni kecil5,000
1328/05 14:15BUJANG51balak10,000
1428/05 14:12I_N_D_O_99lucky9910,000
1528/05 14:12SHR72murni besar50,000
1628/05 14:10HOLAN8585murni besar25,000
1728/05 14:10CHAIKAmurni besar50,000
1828/05 14:09SEMENEWmurni besar25,000
1928/05 14:08ANNOY13murni kecil50,000
2028/05 14:08S4KTY5PJmurni kecil25,000
2128/05 14:07OSCAR0905lucky9950,000
2228/05 14:07GUAVAmurni besar50,000
2328/05 14:07IAIHbalak100,000
2428/05 14:07KASELLAmurni besar25,000
2528/05 14:06DAVOV86murni besar50,000
2628/05 14:05EDANELINKmurni besar50,000
2728/05 14:05PANDULAPASmurni besar25,000
2828/05 14:03ANDYARYAmurni kecil25,000
2928/05 14:02KOTOR123murni besar5,000
3028/05 14:02ANDITNBmurni besar5,000
3128/05 14:02PENCEN21murni kecil50,000
3228/05 14:02OLOY24murni besar50,000
3328/05 14:00PROJOK878murni besar25,000
3428/05 13:59M3RCUSU4balak10,000
3528/05 13:58CUTZZZmurni kecil5,000
3628/05 13:58EGHA1993murni kecil25,000
3728/05 13:57HK4DMARBUN98balak50,000
3828/05 13:57JUNGZONGmurni kecil5,000
3928/05 13:57MILDUPmurni besar25,000
4028/05 13:56SAKOY82murni kecil50,000
4128/05 13:56MARKING66murni kecil50,000
4228/05 13:55HOKI4661balak10,000
4328/05 13:54JUARA3393balak10,000
4428/05 13:53DJRKFMFmurni kecil5,000
4528/05 13:52DEDY765murni kecil50,000
4628/05 13:52CA4ADBE4murni besar5,000
4728/05 13:50IPULL46murni besar5,000
4828/05 13:49FF8F9E20murni kecil5,000
4928/05 13:494C3225murni kecil50,000
5028/05 13:48GOODPAPAmurni besar50,000

Ceme Multi Jackpot System

Jackpot dilihat dari gabungan kartu pemain dengan kartu bandar. Bandar harus membeli jackpot sebanyak jumlah player yang sedang duduk. Sebagai contoh bila terdapat 3 pemain duduk bermain, dan bandar memutuskan untuk membeli jackpot Rp 1.000, maka pada periode tersebut bandar akan membeli jackpot sebanyak 3xRp1.000 = Rp3.000.

Jackpot bukanlah suatu keharusan untuk dibeli, namun kami memberikan suatu fitur tambahan untuk member tercinta dari www.qqdomino.info.

Terdapat tiga pilihan harga jackpot yang bisa anda beli yaitu :100,500 dan 1000 rupiah.

Hadiah dari Multi jackpot system www.qqdomino.info

  1. Murni Kecil x 50 harga jackpot yang anda beli.
      (contoh:anda membeli 1000 maka:1000 X 50 = 50.000)
  2. Murni Besar x 50 harga jackpot yang anda beli
      (contoh:anda membeli 1000 maka:1000 X 50 = 50.000)
  3. BALAK x 200 harga jackpot yang anda beli
      (contoh:anda membeli 1000 maka:1000 X 200 = 200.000)
  4. ENAM DEWA x 6666 harga jackpot yang anda beli
      (contoh:anda membeli 1000 maka:1000 X 6666 = 6.666.000)

Demikian adalah penjelasan dari Multi Jackpot www.qqdomino.info terima kasih dan selamat bermain salam hoki dari kami

Ceme Jackpot Winner

TOP ENAM DEWA
No.TanggalNamaPriceWin
128/05 14:14AJI290murni enam666,600
228/05 14:11WAKYETmurni enam666,600
328/05 14:00TEOT52murni enam666,600
428/05 13:30SIMAT06murni enam3,333,000
528/05 13:01MBEROXmurni enam6,666,000
TOP BALAK
No.TanggalNamaPriceWin
128/05 14:25MPEKKUC7balak200,000
228/05 14:25KHAFI85balak100,000
328/05 14:25POO00OOPbalak200,000
428/05 14:25JUPRIBOBbalak200,000
528/05 14:25BINTANG991balak100,000
LATEST JACKPOT
No.TanggalNamaPriceWin
128/05 14:26F256B9DEmurni kecil5,000
228/05 14:26WATIJAYAIJmurni kecil5,000
328/05 14:26TSUImurni kecil50,000
428/05 14:26BLACK14_murni kecil50,000
528/05 14:26LEVI001murni kecil50,000
628/05 14:26EFANDYmurni kecil50,000
728/05 14:26LB881850murni kecil50,000
828/05 14:26EFANDYmurni kecil50,000
928/05 14:26EFANDYmurni kecil50,000
1028/05 14:26MADAM_JHmurni besar50,000
1128/05 14:26KEMPA21murni kecil50,000
1228/05 14:26BEATCBSmurni kecil50,000
1328/05 14:25MPEKKUC7balak200,000
1428/05 14:25KHAFI85balak100,000
1528/05 14:25DWTWKWKmurni kecil5,000
1628/05 14:25POO00OOPbalak200,000
1728/05 14:25JUPRIBOBmurni kecil50,000
1828/05 14:25POCARYSWETmurni kecil25,000
1928/05 14:25DILLARBOCImurni kecil50,000
2028/05 14:25VBEST58murni besar5,000
2128/05 14:25PESTENG04murni besar25,000
2228/05 14:25JUPRIBOBbalak200,000
2328/05 14:25BINTANG991balak100,000
2428/05 14:25LOV33YAUmurni kecil50,000
2528/05 14:24NADIACAME7balak200,000
2628/05 14:24AUHUDUAbalak200,000
2728/05 14:24BLACK14_murni kecil50,000
2828/05 14:24LEVI001murni kecil50,000
2928/05 14:24MUKLAS17balak200,000
3028/05 14:24B87TAKEL368balak20,000
3128/05 14:24BU53T88murni kecil50,000
3228/05 14:24JISONG___murni kecil50,000
3328/05 14:24WIN343murni besar50,000
3428/05 14:24DOCIL86murni besar50,000
3528/05 14:24WOKS22murni besar5,000
3628/05 14:24PLEWWEKmurni kecil50,000
3728/05 14:24SUDIADA100murni kecil50,000
3828/05 14:24MIMIPERI_3murni kecil50,000
3928/05 14:24ATTAHIRAHmurni kecil50,000
4028/05 14:24IWAN32murni besar50,000
4128/05 14:24BONEXRAHOKmurni kecil5,000
4228/05 14:24KAKARANAHmurni kecil5,000
4328/05 14:23DODY141balak200,000
4428/05 14:23KALMAR02murni besar50,000
4528/05 14:23MCI0NENSY007murni besar50,000
4628/05 14:23HOKI010192murni besar5,000
4728/05 14:23RIES_JAYAbalak200,000
4828/05 14:23SEKSKKbalak100,000
4928/05 14:23BOLAN97murni kecil25,000
5028/05 14:23HK_5888murni kecil50,000